FW9580 Weather Reports


Display with metric or nautical units.
time (UTC)temp
F
wind
direction
speed
MPH
gust
MPH
rain 1hr
in
rain 24hr
in
rain mn
in
humidity
%
barometer
mb
20260508090001 41 269 3.0 9.0 0.00 0.00 0.00 70 1005.0
20260508084559 41 265 6.0 11.0 0.00 0.00 0.00 71 1004.9
20260508083058 41 257 5.0 11.0 0.00 0.00 0.00 70 1004.8
20260508081608 41 257 5.0 11.0 0.00 0.00 0.00 70 1004.9
20260508080055 42 257 5.0 10.0 0.00 0.00 0.00 70 1004.8
20260508074553 42 255 5.0 10.0 0.00 0.00 0.00 67 1004.7
20260508073103 42 240 6.0 15.0 0.00 0.00 0.00 67 1004.6
20260508071608 42 261 5.0 10.0 0.00 0.00 0.00 67 1004.5
20260508070058 42 274 6.0 12.0 0.00 0.01 0.00 66 1004.6
20260508064546 42 257 5.0 15.0 0.00 0.01 0.00 67 1004.7
20260508063044 42 294 6.0 11.0 0.00 0.01 0.00 66 1004.7
20260508061545 42 223 5.0 10.0 0.00 0.01 0.00 66 1004.9
20260508060043 43 266 6.0 17.0 0.00 0.19 0.00 63 1004.9
20260508054543 43 252 6.0 12.0 0.00 0.19 0.00 63 1005.0
20260508053035 43 248 7.0 14.0 0.00 0.19 0.00 62 1005.0
20260508051539 44 267 6.0 12.0 0.00 0.19 0.00 61 1005.0
20260508050033 44 278 5.0 15.0 0.00 0.19 0.19 60 1005.2
20260508044528 44 248 6.0 13.0 0.00 0.19 0.19 61 1005.3
20260508043027 43 275 7.0 12.0 0.00 0.19 0.19 62 1005.2
20260508041524 43 283 6.0 10.0 0.00 0.19 0.19 61 1005.3
20260508040029 44 291 7.0 12.0 0.00 0.19 0.19 60 1005.4
20260508034521 44 302 6.0 11.0 0.00 0.19 0.19 61 1005.6
20260508033020 44 282 5.0 11.0 0.00 0.19 0.19 60 1005.7
20260508031517 44 262 6.0 10.0 0.00 0.19 0.19 60 1005.7
20260508030023 45 279 5.0 9.0 0.00 0.23 0.19 58 1005.6
20260508024519 45 281 4.0 10.0 0.00 0.23 0.19 57 1005.5
20260508023019 46 292 6.0 10.0 0.00 0.23 0.19 56 1005.5
20260508021519 46 280 5.0 10.0 0.00 0.23 0.19 55 1005.4
20260508020013 46 277 6.0 10.0 0.00 0.34 0.19 55 1005.5
20260508014520 47 295 5.0 10.0 0.00 0.34 0.19 57 1005.5
20260508013012 47 284 4.0 8.0 0.00 0.34 0.19 55 1005.5
20260508011514 49 304 8.0 16.0 0.00 0.34 0.19 51 1005.6
20260508010010 49 276 8.0 17.0 0.00 0.59 0.19 51 1005.3
20260508004509 50 319 9.0 16.0 0.00 0.59 0.19 53 1005.1
20260508003008 50 294 6.0 10.0 0.00 0.59 0.19 54 1004.8
20260508001520 51 281 9.0 16.0 0.00 0.59 0.19 54 1004.5
20260508000007 51 279 4.0 15.0 0.00 0.75 0.19 59 1004.1
20260507234505 51 283 6.0 10.0 0.00 0.75 0.19 68 1004.0
20260507233014 49 150 0.0 5.0 0.00 0.75 0.19 81 1003.7
20260507231510 50 152 1.0 7.0 0.00 0.75 0.19 79 1003.4
20260507230013 50 134 3.0 7.0 0.00 0.80 0.19 78 1003.1
20260507224503 50 138 5.0 10.0 0.00 0.80 0.19 78 1002.8
20260507223002 49 130 4.0 6.0 0.00 0.80 0.19 79 1002.6
20260507221501 50 134 2.0 5.0 0.00 0.80 0.19 78 1002.6
20260507220003 49 143 4.0 8.0 0.00 0.88 0.19 78 1002.7
20260507214501 50 125 4.0 10.0 0.00 0.88 0.19 78 1002.7
20260507213102 50 123 6.0 14.0 0.00 0.88 0.19 76 1002.7
20260507211605 50 130 9.0 14.0 0.00 0.88 0.19 73 1002.7
20260507210059 51 145 11.0 21.0 0.00 0.90 0.19 71 1002.7
20260507204602 51 138 10.0 17.0 0.00 0.90 0.19 73 1002.6
20260507203101 52 162 11.0 18.0 0.00 0.90 0.19 71 1002.4
20260507201558 54 127 10.0 14.0 0.00 0.90 0.19 70 1002.5
20260507200056 54 162 10.0 18.0 0.00 0.90 0.19 69 1002.5
20260507194558 53 126 9.0 17.0 0.00 0.90 0.19 72 1002.7
20260507193055 56 137 13.0 20.0 0.00 0.90 0.19 66 1002.8
20260507191601 57 158 10.0 16.0 0.00 0.90 0.19 63 1002.9
20260507190054 56 134 8.0 14.0 0.00 0.90 0.19 69 1002.8
20260507184554 58 170 8.0 15.0 0.00 0.90 0.19 65 1003.0
20260507183103 59 137 8.0 14.0 0.00 0.90 0.19 66 1003.2
20260507181554 56 147 7.0 13.0 0.00 0.90 0.19 67 1003.2
20260507180056 60 152 6.0 14.0 0.00 0.90 0.19 63 1003.4
20260507174552 57 174 8.0 14.0 0.00 0.90 0.19 68 1003.5
20260507173059 60 151 9.0 15.0 0.00 0.90 0.19 62 1003.4
20260507171554 58 139 7.0 12.0 0.00 0.90 0.19 63 1003.4
20260507170054 57 161 8.0 11.0 0.00 0.90 0.19 65 1003.5
20260507164550 57 156 9.0 14.0 0.00 0.90 0.19 62 1003.6
20260507163049 59 139 7.0 10.0 0.00 0.90 0.19 61 1003.7
20260507161553 58 145 9.0 12.0 0.00 0.90 0.19 63 1003.8
20260507160047 58 138 7.0 11.0 0.00 0.90 0.19 65 1003.9
20260507154547 59 185 3.0 7.0 0.00 0.90 0.19 61 1004.1
20260507153051 59 211 3.0 7.0 0.00 0.90 0.19 61 1004.3
20260507151542 58 217 4.0 7.0 0.00 0.90 0.19 63 1004.4
20260507150041 56 232 3.0 8.0 0.00 0.90 0.19 67 1004.4
20260507144543 57 227 2.0 7.0 0.00 0.90 0.19 67 1004.5
20260507143042 56 237 6.0 9.0 0.00 0.90 0.19 68 1004.8
20260507141538 56 225 4.0 9.0 0.00 0.90 0.19 68 1004.9
20260507140037 55 252 4.0 9.0 0.00 0.90 0.19 72 1005.0
20260507134534 54 217 2.0 6.0 0.00 0.90 0.19 74 1004.9
20260507133033 53 230 3.0 7.0 0.00 0.90 0.19 74 1005.4
20260507131538 53 277 2.0 8.0 0.00 0.90 0.19 76 1005.4
20260507130033 52 276 6.0 10.0 0.00 0.90 0.19 79 1005.1
20260507124525 51 255 4.0 9.0 0.00 0.90 0.19 82 1005.3
20260507123024 50 240 3.0 8.0 0.00 0.90 0.19 86 1004.8
20260507121520 48 263 3.0 6.0 0.00 0.90 0.19 90 1005.1
20260507120019 48 263 2.0 7.0 0.00 0.90 0.19 90 1005.2
20260507114517 48 259 2.0 6.0 0.00 0.90 0.19 93 1005.7
20260507113023 47 258 3.0 6.0 0.00 0.90 0.19 94 1005.3
20260507111518 45 252 1.0 5.0 0.00 0.90 0.19 94 1005.6
20260507110015 46 267 1.0 5.0 0.00 0.90 0.19 95 1005.4
20260507104514 46 259 4.0 8.0 0.00 0.90 0.19 95 1005.4
20260507103012 46 267 3.0 6.0 0.00 0.90 0.19 95 1004.5
20260507101512 45 261 3.0 6.0 0.00 0.90 0.19 96 1004.9
20260507100015 45 282 5.0 7.0 0.00 0.90 0.19 95 1004.3
20260507094509 45 281 5.0 9.0 0.00 0.90 0.19 96 1004.5
20260507093014 45 290 4.0 11.0 0.00 0.90 0.19 96 1004.2
20260507091508 45 284 4.0 9.0 0.00 0.90 0.19 96 1004.8